Location: Newark
(42.8481°N, 0.4872°E)
Time: 18:10:14
(UTC+00:00)

Vanguard 1 - Pass Details

Date: 05 November 2020
Orbit: 650 x 3833 km, 34.2° (Epoch: 23 November)

Event Time Altitude Azimuth Distance (km) Brightness Sun altitude
Rises 07:21:15 0° 179° (S) 5,604 14.4 6.4°
Reaches altitude 10° 07:26:29 10° 161° (SSE) 5,168 14.6 7.2°
Maximum altitude 07:35:47 18° 125° (SE) 5,332 16.2 8.7°
Drops below altitude 10° 07:47:23 10° 92° (E) 6,688 15.5 10.5°
Sets 07:55:46 0° 77° (ENE) 7,952 15.4 11.8°
